• In Österreich
  • Länderverzeichnis
  • Für 7 Tage
  • Wassertemperatur
  • Satellitenkarten
  • Wetterkarte
  • News
  • Widgets
  • user-avatar
    Anmelden

    Stündliche Wetter Elbasan

    Heute, 17 Dezember, Sonntag

    Zeit Temperatur Niederschläge Wind Luftdruck Luftfeuchtigkeit
    00:00 +10°C° 1,2 mm 1 m/S 729 mmHg 94%
    01:00 +10°C° 0 mm 1 m/S 729 mmHg 94%
    02:00 +10°C° 0,9 mm 1 m/S 729 mmHg 93%
    03:00 +9°C° 0,9 mm 1 m/S 729 mmHg 92%
    04:00 +9°C° 0,9 mm 1 m/S 729 mmHg 91%
    05:00 +9°C° 0,7 mm 1 m/S 729 mmHg 92%
    06:00 +9°C° 0,7 mm 1 m/S 729 mmHg 92%
    07:00 +8°C° 0 mm 1 m/S 729 mmHg 94%
    08:00 +9°C° 0,6 mm 1 m/S 730 mmHg 92%
    09:00 +9°C° 0,6 mm 1 m/S 730 mmHg 90%
    10:00 +9°C° 0,6 mm 1 m/S 730 mmHg 89%
    11:00 +8°C° 0,5 mm 2 m/S 731 mmHg 85%
    12:00 +9°C° 0,5 mm 2 m/S 731 mmHg 82%
    13:00 +9°C° 0 mm 2 m/S 731 mmHg 79%
    14:00 +8°C° 0,5 mm 2 m/S 731 mmHg 81%
    15:00 +8°C° 0,5 mm 2 m/S 731 mmHg 84%
    16:00 +7°C° 0,5 mm 2 m/S 732 mmHg 86%
    17:00 +7°C° 0,4 mm 2 m/S 732 mmHg 88%
    18:00 +7°C° 0,4 mm 1 m/S 732 mmHg 89%
    19:00 +7°C° 0,4 mm 1 m/S 733 mmHg 91%
    20:00 +7°C° 0,2 mm 1 m/S 733 mmHg 90%
    21:00 +5°C° 0,2 mm 2 m/S 734 mmHg 90%
    22:00 +5°C° 0,2 mm 2 m/S 734 mmHg 90%
    23:00 +5°C° 0,2 mm 2 m/S 734 mmHg 89%

    Morgen, 18 Dezember, Montag

    Zeit Temperatur Niederschläge Wind Luftdruck Luftfeuchtigkeit
    00:00 +5°C° 0,2 mm 2 m/S 735 mmHg 88%
    01:00 +5°C° 0,2 mm 2 m/S 735 mmHg 87%
    02:00 +3°C° 0,5 mm 3 m/S 735 mmHg 87%
    03:00 +3°C° 0,5 mm 3 m/S 735 mmHg 87%
    04:00 +3°C° 0,5 mm 3 m/S 735 mmHg 87%
    05:00 +3°C° 0,7 mm 3 m/S 735 mmHg 88%
    06:00 +3°C° 0,7 mm 3 m/S 735 mmHg 89%
    07:00 +3°C° 0,7 mm 3 m/S 735 mmHg 90%
    08:00 +4°C° 0,3 mm 2 m/S 735 mmHg 88%
    09:00 +5°C° 0,3 mm 2 m/S 736 mmHg 86%
    10:00 +5°C° 0,3 mm 2 m/S 736 mmHg 83%
    11:00 +5°C° 0,2 mm 2 m/S 736 mmHg 81%
    12:00 +6°C° 0,2 mm 2 m/S 735 mmHg 79%
    13:00 +6°C° 0,2 mm 2 m/S 735 mmHg 76%
    14:00 +5°C° 0,3 mm 2 m/S 735 mmHg 80%
    15:00 +5°C° 0,3 mm 2 m/S 735 mmHg 83%
    16:00 +4°C° 0,3 mm 2 m/S 735 mmHg 86%
    17:00 +4°C° 0,3 mm 2 m/S 736 mmHg 87%
    18:00 +3°C° 0,3 mm 2 m/S 736 mmHg 89%
    19:00 +3°C° 0,3 mm 2 m/S 736 mmHg 90%
    20:00 +4°C° 0,2 mm 1 m/S 737 mmHg 89%
    21:00 +3°C° 0,2 mm 1 m/S 737 mmHg 89%
    22:00 +3°C° 0,2 mm 1 m/S 737 mmHg 89%
    23:00 +2°C° 0,1 mm 1 m/S 738 mmHg 89%

    übermorgen, 19 Dezember, Dienstag

    Zeit Temperatur Niederschläge Wind Luftdruck Luftfeuchtigkeit
    00:00 +2°C° 0,1 mm 1 m/S 738 mmHg 88%
    01:00 +2°C° 0,1 mm 1 m/S 738 mmHg 88%
    02:00 +2°C° 0,1 mm 1 m/S 739 mmHg 87%
    03:00 +2°C° 0,1 mm 1 m/S 739 mmHg 87%
    04:00 -1°C° 0,1 mm 2 m/S 739 mmHg 86%
    05:00 -1°C° 0,1 mm 2 m/S 740 mmHg 86%
    06:00 -1°C° 0,1 mm 2 m/S 740 mmHg 85%
    07:00 -1°C° 0,1 mm 2 m/S 741 mmHg 84%
    08:00 +1°C° 0 mm 2 m/S 741 mmHg 79%
    09:00 +2°C° 0 mm 2 m/S 741 mmHg 74%
    10:00 +3°C° 0 mm 2 m/S 742 mmHg 70%
    11:00 +3°C° 0 mm 2 m/S 742 mmHg 67%
    12:00 +4°C° 0 mm 2 m/S 742 mmHg 65%
    13:00 +4°C° 0 mm 2 m/S 742 mmHg 62%
    14:00 +3°C° 0 mm 2 m/S 742 mmHg 66%
    15:00 +3°C° 0 mm 2 m/S 742 mmHg 70%
    16:00 +3°C° 0 mm 1 m/S 742 mmHg 74%
    17:00 +1°C° 0 mm 2 m/S 742 mmHg 75%
    18:00 -1°C° 0 mm 2 m/S 743 mmHg 76%
    19:00 -1°C° 0 mm 2 m/S 743 mmHg 77%
    20:00 -2°C° 0 mm 2 m/S 743 mmHg 77%
    21:00 -2°C° 0 mm 2 m/S 743 mmHg 77%
    22:00 -2°C° 0 mm 2 m/S 744 mmHg 77%
    23:00 -2°C° 0 mm 2 m/S 744 mmHg 77%

    20 Dezember, Mittwoch

    Zeit Temperatur Niederschläge Wind Luftdruck Luftfeuchtigkeit
    00:00 -2°C° 0 mm 2 m/S 744 mmHg 77%
    01:00 -3°C° 0 mm 2 m/S 744 mmHg 77%
    02:00 -3°C° 0 mm 2 m/S 744 mmHg 77%
    03:00 -3°C° 0 mm 2 m/S 743 mmHg 77%
    04:00 -3°C° 0 mm 2 m/S 743 mmHg 77%
    05:00 -3°C° 0 mm 2 m/S 744 mmHg 76%
    06:00 -3°C° 0 mm 2 m/S 744 mmHg 76%
    07:00 -3°C° 0 mm 2 m/S 744 mmHg 76%
    08:00 -2°C° 0 mm 2 m/S 744 mmHg 71%
    09:00 +1°C° 0 mm 2 m/S 744 mmHg 67%
    10:00 +2°C° 0 mm 2 m/S 744 mmHg 63%
    11:00 +3°C° 0 mm 2 m/S 744 mmHg 61%
    12:00 +4°C° 0 mm 2 m/S 744 mmHg 59%
    13:00 +5°C° 0 mm 1 m/S 744 mmHg 56%
    14:00 +5°C° 0 mm 1 m/S 744 mmHg 60%
    15:00 +4°C° 0 mm 1 m/S 744 mmHg 65%
    16:00 +3°C° 0 mm 1 m/S 744 mmHg 69%
    17:00 +1°C° 0 mm 2 m/S 744 mmHg 71%
    18:00 -1°C° 0 mm 2 m/S 744 mmHg 73%
    19:00 -1°C° 0 mm 2 m/S 744 mmHg 74%
    20:00 -2°C° 0 mm 2 m/S 745 mmHg 74%
    21:00 -2°C° 0 mm 2 m/S 745 mmHg 74%
    22:00 -2°C° 0 mm 2 m/S 745 mmHg 74%
    23:00 -2°C° 0 mm 2 m/S 745 mmHg 74%

    21 Dezember, Donnerstag

    Zeit Temperatur Niederschläge Wind Luftdruck Luftfeuchtigkeit
    00:00 -2°C° 0 mm 2 m/S 745 mmHg 73%
    01:00 -3°C° 0 mm 2 m/S 745 mmHg 73%
    02:00 -3°C° 0 mm 2 m/S 745 mmHg 72%
    03:00 -3°C° 0 mm 2 m/S 745 mmHg 71%
    04:00 -3°C° 0 mm 2 m/S 745 mmHg 70%
    05:00 -1°C° 0 mm 1 m/S 745 mmHg 69%
    06:00 -1°C° 0 mm 1 m/S 745 mmHg 68%
    07:00 -1°C° 0 mm 1 m/S 745 mmHg 67%
    08:00 +1°C° 0 mm 1 m/S 745 mmHg 62%
    09:00 +2°C° 0 mm 1 m/S 746 mmHg 57%
    10:00 +4°C° 0 mm 1 m/S 746 mmHg 52%
    11:00 +5°C° 0 mm 1 m/S 745 mmHg 50%
    12:00 +4°C° 0 mm 2 m/S 745 mmHg 48%
    13:00 +5°C° 0 mm 2 m/S 744 mmHg 47%
    14:00 +4°C° 0 mm 2 m/S 744 mmHg 52%
    15:00 +2°C° 0 mm 2 m/S 744 mmHg 57%
    16:00 +2°C° 0 mm 1 m/S 744 mmHg 63%
    17:00 +2°C° 0 mm 1 m/S 744 mmHg 63%
    18:00 +1°C° 0 mm 1 m/S 744 mmHg 63%
    19:00 0°C° 0 mm 1 m/S 744 mmHg 63%
    20:00 0°C° 0 mm 1 m/S 744 mmHg 61%
    21:00 0°C° 0 mm 1 m/S 744 mmHg 60%
    22:00 0°C° 0 mm 1 m/S 744 mmHg 58%
    23:00 0°C° 0 mm 1 m/S 744 mmHg 56%

    22 Dezember, Freitag

    Zeit Temperatur Niederschläge Wind Luftdruck Luftfeuchtigkeit
    00:00 +1°C° 0 mm 1 m/S 744 mmHg 54%
    01:00 +1°C° 0 mm 1 m/S 744 mmHg 52%
    02:00 +1°C° 0 mm 1 m/S 743 mmHg 51%
    03:00 +1°C° 0 mm 1 m/S 743 mmHg 49%
    04:00 +1°C° 0 mm 1 m/S 743 mmHg 48%
    05:00 +1°C° 0 mm 1 m/S 743 mmHg 47%
    06:00 +1°C° 0 mm 1 m/S 743 mmHg 47%
    07:00 +1°C° 0 mm 1 m/S 743 mmHg 47%
    08:00 +3°C° 0 mm 1 m/S 743 mmHg 47%
    09:00 +5°C° 0 mm 1 m/S 742 mmHg 47%
    10:00 +6°C° 0 mm 0 m/S 742 mmHg 47%
    11:00 +8°C° 0 mm 1 m/S 742 mmHg 49%
    12:00 +8°C° 0 mm 1 m/S 741 mmHg 52%
    13:00 +9°C° 0 mm 1 m/S 741 mmHg 54%
    14:00 +7°C° 0 mm 1 m/S 741 mmHg 58%
    15:00 +6°C° 0 mm 1 m/S 740 mmHg 62%
    16:00 +5°C° 0 mm 1 m/S 740 mmHg 65%
    17:00 +4°C° 0 mm 1 m/S 740 mmHg 65%
    18:00 +4°C° 0 mm 1 m/S 740 mmHg 65%
    19:00 +3°C° 0 mm 1 m/S 740 mmHg 65%
    20:00 +3°C° 0 mm 1 m/S 740 mmHg 64%
    21:00 +3°C° 0 mm 1 m/S 740 mmHg 64%
    22:00 +3°C° 0 mm 1 m/S 740 mmHg 63%
    23:00 +3°C° 0 mm 1 m/S 740 mmHg 63%
    Mehr zeigen